(°C)
16°
18°
21°
24°
26°
28°
29°
(°C)
16°
18°
21°
23°
26°
28°
29°
J
JJV
J
J
JJZ
JJZ
JZ
(km/h)
5-11
4-13
7-16
9-18
9-21
9-23
10-25
(mm)
0
0
0
0
0
0
0
(%)
0
0
0
0
0
0
0

Výška Slnka nad obzorom

/ 11.4°
sun-icon
UV 5
03:47
19:50
Ubúdajúci kosáčik (291°)
22:55
15:02

Správy METAR pre lokalitu 55.61°S 49.28°V (UWKD)

Čas Podmienky Teplota/
Rosný bod
Vietor Viditeľnosť Počasie Oblaky Tlak Zmeniť Nespracované
VFR 16°C / 12°C 170º 4kt >10km - Clouds and Visibility OK 1014 No Significant change UWKD 020200Z 17002MPS CAVOK 16/12 Q1014 R29/CLRD70 NOSIG RMK QFE749/0999
VFR 15°C / 12°C 150º 6kt >10km - Clouds and Visibility OK 1013 No Significant change UWKD 020130Z 15003MPS CAVOK 15/12 Q1013 R29/CLRD70 NOSIG RMK QFE749/0999
VFR 17°C / 11°C 140º 6kt >10km - Clouds and Visibility OK 1014 No Significant change UWKD 020100Z 14003MPS CAVOK 17/11 Q1014 R29/70D NOSIG RMK QFE749/0999
VFR 17°C / 11°C 200º 2kt >10km - Clouds and Visibility OK 1014 No Significant change UWKD 020030Z 20001MPS CAVOK 17/11 Q1014 R29/70D NOSIG RMK QFE749/0999
VFR 18°C / 12°C 190º variable 150º to 220º 4kt >10km - Clouds and Visibility OK 1013 No Significant change UWKD 020000Z 19002MPS 150V220 CAVOK 18/12 Q1013 R29/CLRD70 NOSIG RMK QFE749/0999
VFR 15°C / 11°C variable 2kt >10km - Clouds and Visibility OK 1013 No Significant change UWKD 012330Z VRB01MPS CAVOK 15/11 Q1013 R29/CLRD70 NOSIG RMK QFE749/0999
VFR 18°C / 11°C 220º 4kt >10km - Clouds and Visibility OK 1013 No Significant change UWKD 012300Z 22002MPS CAVOK 18/11 Q1013 R29/CLRD70 NOSIG RMK QFE749/0999
VFR 17°C / 11°C 170º 4kt >10km - Clouds and Visibility OK 1013 No Significant change UWKD 012230Z 17002MPS CAVOK 17/11 Q1013 R29/CLRD70 NOSIG RMK QFE749/0998
VFR 18°C / 11°C 190º 2kt >10km - Clouds and Visibility OK 1013 No Significant change UWKD 012200Z 19001MPS CAVOK 18/11 Q1013 R29/CLRD70 NOSIG RMK QFE749/0998
VFR 17°C / 11°C 230º 2kt >10km - Clouds and Visibility OK 1013 No Significant change UWKD 012130Z 23001MPS CAVOK 17/11 Q1013 R29/CLRD70 NOSIG RMK QFE749/0998
VFR 19°C / 11°C 250º 4kt >10km - Clouds and Visibility OK 1013 No Significant change UWKD 012100Z 25002MPS CAVOK 19/11 Q1013 R29/CLRD70 NOSIG RMK QFE749/0998
VFR 17°C / 12°C 250º 4kt >10km - Clouds and Visibility OK 1013 No Significant change UWKD 012030Z 25002MPS CAVOK 17/12 Q1013 R29/CLRD70 NOSIG RMK QFE748/0998
VFR 19°C / 11°C 250º 4kt >10km - Clouds and Visibility OK 1013 No Significant change UWKD 012000Z 25002MPS CAVOK 19/11 Q1013 R29/CLRD70 NOSIG RMK QFE748/0998
VFR 19°C / 11°C 240º variable 200º to 260º 4kt >10km - Clouds and Visibility OK 1013 No Significant change UWKD 011930Z 24002MPS 200V260 CAVOK 19/11 Q1013 R29/CLRD70 NOSIG RMK QFE748/0998
VFR 20°C / 12°C 230º 4kt >10km - Clouds and Visibility OK 1012 No Significant change UWKD 011900Z 23002MPS CAVOK 20/12 Q1012 R29/CLRD70 NOSIG RMK QFE748/0997
VFR 21°C / 11°C 260º 4kt >10km - Clouds and Visibility OK 1012 No Significant change UWKD 011830Z 26002MPS CAVOK 21/11 Q1012 R29/CLRD70 NOSIG RMK QFE748/0998
VFR 21°C / 11°C 250º 4kt >10km - Clouds and Visibility OK 1012 No Significant change UWKD 011800Z 25002MPS CAVOK 21/11 Q1012 R29/CLRD70 NOSIG RMK QFE748/0997
VFR 22°C / 11°C 260º 4kt >10km - Clouds and Visibility OK 1012 No Significant change UWKD 011730Z 26002MPS CAVOK 22/11 Q1012 R29/70D NOSIG RMK QFE748/0997
VFR 23°C / 10°C 260º 4kt >10km - Clouds and Visibility OK 1012 No Significant change UWKD 011700Z 26002MPS CAVOK 23/10 Q1012 R29/CLRD70 NOSIG RMK QFE748/0997
VFR 23°C / 11°C 270º 6kt >10km - Clouds and Visibility OK 1012 No Significant change UWKD 011630Z 27003MPS CAVOK 23/11 Q1012 R29/70D NOSIG RMK QFE748/0997
VFR 25°C / 10°C 290º 6kt >10km - Clouds and Visibility OK 1012 No Significant change UWKD 011600Z 29003MPS CAVOK 25/10 Q1012 R29/70D NOSIG RMK QFE748/0997
VFR 26°C / 9°C 290º 10kt >10km - Clouds and Visibility OK 1012 No Significant change UWKD 011530Z 29005MPS CAVOK 26/09 Q1012 R29/CLRD70 NOSIG RMK QFE748/0997
VFR 27°C / 8°C 280º 12kt >10km - Clouds and Visibility OK 1012 No Significant change UWKD 011500Z 28006MPS CAVOK 27/08 Q1012 R29/CLRD70 NOSIG RMK QFE747/0997
VFR 28°C / 8°C 280º 14kt >10km - Clouds and Visibility OK 1012 No Significant change UWKD 011430Z 28007MPS CAVOK 28/08 Q1012 R29/CLRD70 NOSIG RMK QFE747/0997

VFR

16°C / 12°C

[Viac]
Vietor 170º 4kt
Viditeľnosť >10km
Počasie -
Oblaky Clouds and Visibility OK
Tlak 1014
Zmeniť No Significant change
Nespracované UWKD 020200Z 17002MPS CAVOK 16/12 Q1014 R29/CLRD70 NOSIG RMK QFE749/0999

VFR

15°C / 12°C

[Viac]
Vietor 150º 6kt
Viditeľnosť >10km
Počasie -
Oblaky Clouds and Visibility OK
Tlak 1013
Zmeniť No Significant change
Nespracované UWKD 020130Z 15003MPS CAVOK 15/12 Q1013 R29/CLRD70 NOSIG RMK QFE749/0999

VFR

17°C / 11°C

[Viac]
Vietor 140º 6kt
Viditeľnosť >10km
Počasie -
Oblaky Clouds and Visibility OK
Tlak 1014
Zmeniť No Significant change
Nespracované UWKD 020100Z 14003MPS CAVOK 17/11 Q1014 R29/70D NOSIG RMK QFE749/0999

VFR

17°C / 11°C

[Viac]
Vietor 200º 2kt
Viditeľnosť >10km
Počasie -
Oblaky Clouds and Visibility OK
Tlak 1014
Zmeniť No Significant change
Nespracované UWKD 020030Z 20001MPS CAVOK 17/11 Q1014 R29/70D NOSIG RMK QFE749/0999

VFR

18°C / 12°C

[Viac]
Vietor 190º variable 150º to 220º 4kt
Viditeľnosť >10km
Počasie -
Oblaky Clouds and Visibility OK
Tlak 1013
Zmeniť No Significant change
Nespracované UWKD 020000Z 19002MPS 150V220 CAVOK 18/12 Q1013 R29/CLRD70 NOSIG RMK QFE749/0999

VFR

15°C / 11°C

[Viac]
Vietor variable 2kt
Viditeľnosť >10km
Počasie -
Oblaky Clouds and Visibility OK
Tlak 1013
Zmeniť No Significant change
Nespracované UWKD 012330Z VRB01MPS CAVOK 15/11 Q1013 R29/CLRD70 NOSIG RMK QFE749/0999

VFR

18°C / 11°C

[Viac]
Vietor 220º 4kt
Viditeľnosť >10km
Počasie -
Oblaky Clouds and Visibility OK
Tlak 1013
Zmeniť No Significant change
Nespracované UWKD 012300Z 22002MPS CAVOK 18/11 Q1013 R29/CLRD70 NOSIG RMK QFE749/0999

VFR

17°C / 11°C

[Viac]
Vietor 170º 4kt
Viditeľnosť >10km
Počasie -
Oblaky Clouds and Visibility OK
Tlak 1013
Zmeniť No Significant change
Nespracované UWKD 012230Z 17002MPS CAVOK 17/11 Q1013 R29/CLRD70 NOSIG RMK QFE749/0998

VFR

18°C / 11°C

[Viac]
Vietor 190º 2kt
Viditeľnosť >10km
Počasie -
Oblaky Clouds and Visibility OK
Tlak 1013
Zmeniť No Significant change
Nespracované UWKD 012200Z 19001MPS CAVOK 18/11 Q1013 R29/CLRD70 NOSIG RMK QFE749/0998

VFR

17°C / 11°C

[Viac]
Vietor 230º 2kt
Viditeľnosť >10km
Počasie -
Oblaky Clouds and Visibility OK
Tlak 1013
Zmeniť No Significant change
Nespracované UWKD 012130Z 23001MPS CAVOK 17/11 Q1013 R29/CLRD70 NOSIG RMK QFE749/0998

VFR

19°C / 11°C

[Viac]
Vietor 250º 4kt
Viditeľnosť >10km
Počasie -
Oblaky Clouds and Visibility OK
Tlak 1013
Zmeniť No Significant change
Nespracované UWKD 012100Z 25002MPS CAVOK 19/11 Q1013 R29/CLRD70 NOSIG RMK QFE749/0998

VFR

17°C / 12°C

[Viac]
Vietor 250º 4kt
Viditeľnosť >10km
Počasie -
Oblaky Clouds and Visibility OK
Tlak 1013
Zmeniť No Significant change
Nespracované UWKD 012030Z 25002MPS CAVOK 17/12 Q1013 R29/CLRD70 NOSIG RMK QFE748/0998

VFR

19°C / 11°C

[Viac]
Vietor 250º 4kt
Viditeľnosť >10km
Počasie -
Oblaky Clouds and Visibility OK
Tlak 1013
Zmeniť No Significant change
Nespracované UWKD 012000Z 25002MPS CAVOK 19/11 Q1013 R29/CLRD70 NOSIG RMK QFE748/0998

VFR

19°C / 11°C

[Viac]
Vietor 240º variable 200º to 260º 4kt
Viditeľnosť >10km
Počasie -
Oblaky Clouds and Visibility OK
Tlak 1013
Zmeniť No Significant change
Nespracované UWKD 011930Z 24002MPS 200V260 CAVOK 19/11 Q1013 R29/CLRD70 NOSIG RMK QFE748/0998

VFR

20°C / 12°C

[Viac]
Vietor 230º 4kt
Viditeľnosť >10km
Počasie -
Oblaky Clouds and Visibility OK
Tlak 1012
Zmeniť No Significant change
Nespracované UWKD 011900Z 23002MPS CAVOK 20/12 Q1012 R29/CLRD70 NOSIG RMK QFE748/0997

VFR

21°C / 11°C

[Viac]
Vietor 260º 4kt
Viditeľnosť >10km
Počasie -
Oblaky Clouds and Visibility OK
Tlak 1012
Zmeniť No Significant change
Nespracované UWKD 011830Z 26002MPS CAVOK 21/11 Q1012 R29/CLRD70 NOSIG RMK QFE748/0998

VFR

21°C / 11°C

[Viac]
Vietor 250º 4kt
Viditeľnosť >10km
Počasie -
Oblaky Clouds and Visibility OK
Tlak 1012
Zmeniť No Significant change
Nespracované UWKD 011800Z 25002MPS CAVOK 21/11 Q1012 R29/CLRD70 NOSIG RMK QFE748/0997

VFR

22°C / 11°C

[Viac]
Vietor 260º 4kt
Viditeľnosť >10km
Počasie -
Oblaky Clouds and Visibility OK
Tlak 1012
Zmeniť No Significant change
Nespracované UWKD 011730Z 26002MPS CAVOK 22/11 Q1012 R29/70D NOSIG RMK QFE748/0997

VFR

23°C / 10°C

[Viac]
Vietor 260º 4kt
Viditeľnosť >10km
Počasie -
Oblaky Clouds and Visibility OK
Tlak 1012
Zmeniť No Significant change
Nespracované UWKD 011700Z 26002MPS CAVOK 23/10 Q1012 R29/CLRD70 NOSIG RMK QFE748/0997

VFR

23°C / 11°C

[Viac]
Vietor 270º 6kt
Viditeľnosť >10km
Počasie -
Oblaky Clouds and Visibility OK
Tlak 1012
Zmeniť No Significant change
Nespracované UWKD 011630Z 27003MPS CAVOK 23/11 Q1012 R29/70D NOSIG RMK QFE748/0997

VFR

25°C / 10°C

[Viac]
Vietor 290º 6kt
Viditeľnosť >10km
Počasie -
Oblaky Clouds and Visibility OK
Tlak 1012
Zmeniť No Significant change
Nespracované UWKD 011600Z 29003MPS CAVOK 25/10 Q1012 R29/70D NOSIG RMK QFE748/0997

VFR

26°C / 9°C

[Viac]
Vietor 290º 10kt
Viditeľnosť >10km
Počasie -
Oblaky Clouds and Visibility OK
Tlak 1012
Zmeniť No Significant change
Nespracované UWKD 011530Z 29005MPS CAVOK 26/09 Q1012 R29/CLRD70 NOSIG RMK QFE748/0997

VFR

27°C / 8°C

[Viac]
Vietor 280º 12kt
Viditeľnosť >10km
Počasie -
Oblaky Clouds and Visibility OK
Tlak 1012
Zmeniť No Significant change
Nespracované UWKD 011500Z 28006MPS CAVOK 27/08 Q1012 R29/CLRD70 NOSIG RMK QFE747/0997

VFR

28°C / 8°C

[Viac]
Vietor 280º 14kt
Viditeľnosť >10km
Počasie -
Oblaky Clouds and Visibility OK
Tlak 1012
Zmeniť No Significant change
Nespracované UWKD 011430Z 28007MPS CAVOK 28/08 Q1012 R29/CLRD70 NOSIG RMK QFE747/0997

Správy TAF pre lokalitu 55.61°S 49.28°V (UWKD)

From till


Maximum Temperature 31ºC on . Minimum Temperature 17ºC on .
From till Wind 180º 6kt. Visibility 10km or more. Nil Significant Cloud.
Temporarly from till Wind 200º 10kt. Gust 19kt.

Nespracované: TAF UWKD 012300Z 0200/0224 18003MPS CAVOK TX31/0212Z TN17/0201Z TEMPO 0206/0215 20005G10MPS

Aktuálne satelitné snímky a snímky zrážok pre lokalitu 55.61°S 49.28°V

Značka polohy je umiestnená na55.61°S 49.28°V. [Viac]

Satelitné snímky zhotovované v reálnom čase využívajú viditeľné svetlo počas dňa a infračervené žiarenie počas noci. Vzhľadom na to, že infračervené žiarenie zisťuje teplotné rozdiely, snímka v noci nie je tmavá. Nízke oblaky a hmlu je, žiaľ, ťažké odlíšiť od prízemných teplôt, preto môžu byť počas noci takmer neviditeľné. Meteosat satelitné snímky pre Európu sú aktualizované v reálnom čase každých 5 minút. Snímky z GOES-16/GOES-17 (Severná a Južná Amerika) a Himawari (Ázia) sú aktualizované každých 10 minút.

Copyright 2021 EUMETSAT / meteoblue. / Copyright 2021 meteoblue

Radar a krátkodobá predpoveď zrážok pre 55.61°S 49.28°V

Mrholenie
Slabý
Mierne
Ťažké
Veľmi ťažké
Krúpy

Značka polohy je umiestnená na 55.61°S 49.28°V. Táto animácia ukazuje zrážky pozorované radarom za poslednú hodinu a tiež 1h predpoveď. Mrholenie alebo slabé sneženie môžu byť pre radar neviditeľné. Intenzita zrážok je určená farebným kódom od svetlomodrej po tmavofialovú.